Showing default

KUIPER-00221, 67147

Orbit data source: Space-Track

KUIPER-00221, 67147 is a payload satellite owned by Kuiper Systems (US) in LEO that was launched on Mon, 15 Dec 2025 UTC via an ATLAS V 551 launch vehicle from the Air Force Eastern Test Range (AFETR). Payload-class satellites include a variety of spacecraft equipped with specific instruments for various scientific and technological missions. These include communications satellites like Starlink; space stations such as the ISS; scientific satellites like the Hubble; Earth observation satellites from companies like Planet Labs, Umbra, and HawkEye 360; GPS; miniature CubeSats for education and research; and military/defense satellites.

Loading next visibility...
Identifier
67147, 2025-301Q
Orbit
LEO
Country
Flag of USUS
Related business
Manufacturer
Kuiper Systems
Mission
Operational Commercial Communications
Bus & Motor
KUIPER, Unknown motor
Mass
~490 kg wet, ~490 kg dry
Launch date (UTC)
2025-12-15 (6 months ago)
Launch vehicle
ATLAS V 551
Launch site
Air Force Eastern Test Range (AFETR)
Object type
Payload
Rocket body
Debris
Shape & HBR
Box + 2 Pan, 3.4 m
Radar Cross Section
2.326 m², Large (>1 m²)

Expand to show TLE details & history
Last TLE update: 16 hours ago

TLE from 16 hours ago
0 KUIPER-00221
1 67147U 25301Q   26171.18688779  .00000252  00000-0  62047-4 0  9999
2 67147  51.9026 347.3768 0000779 113.2531 246.8513 14.79935604 28701
Epoch: 2026-06-20T04:29Z
TLE epoch observation values (Epoch: 2026-06-20T04:29:07.105Z)
Latitude
-0.00003°
Longitude
11.69205°
Altitude
630.489 km
Speed
7.544 km/s
True Right ascension
23h 09m 30s
True Declination
0° 00' 00"
Sunlit
Object was in daylight at epoch
Visualization orbit readout
Latitude
Unknown
Longitude
Unknown
Altitude
Unknown
Speed
Unknown
Apparent Right ascension
Unknown
Apparent Declination
Unknown
Sunlit
N/A
Visualization observer readout
Local Sidereal Time
07:12:31
Azimuth
Unknown
Elevation
Unknown
Doppler factor
Unknown
Orbital elements
Apogee altitude
630.524 km
Perigee altitude
629.432 km
Semi-major axis
7,008.115 km
Eccentricity
0.00008
Inclination
51.9026°
RAAN
347.3768°
Arg. of periapsis
113.2531°
True anomaly
246.84309°
Mean anomaly
246.8513°
Eccentric anomaly
246.8472°
Mean motion
3.69949 °/min
Orbital period
97.31 mins
BSTAR
0.000062047
Loading maneuver chart data...
Computing Atmospheric mass density...
Loading historical data...
Loading historical data...
Loading historical data...
Loading historical data...
Loading historical data...
Loading historical data...
Loading historical data...

Documentation

Showing up to 5 results
|